IU3OVK-13 Weather Reports


time (UTC)temp
C
wind
direction
speed
KPH
gust
KPH
rain 1hr
cm
rain 24hr
cm
rain mn
cm
humidity
%
barometer
mb
20260505075351 16 0.0 0.0 0.00 0.00 0.00 99 1008.3
20260505073311 18 0.0 0.0 0.00 0.00 0.00 99 1007.5
20260505072251 19 0.0 0.0 0.00 0.00 0.00 99 1007.0
20260505071231 18 0.0 0.0 0.00 0.00 0.00 99 1007.3
20260505070211 17 0.0 0.0 0.00 0.00 0.00 99 1008.1
20260505065150 20 0.0 0.0 0.00 0.00 0.00 99 1006.9
20260505064130 16 0.0 0.0 0.00 0.00 0.00 99 1007.7
20260505062048 21 0.0 0.0 0.00 0.00 0.00 99 1007.2
20260505061028 19 0.0 0.0 0.00 0.00 0.00 99 1006.7
20260505060008 16 0.0 0.0 0.00 0.00 0.00 99 1006.7
20260505054947 14 0.0 0.0 0.00 0.00 0.00 99 1007.1
20260505053927 14 0.0 0.0 0.00 0.00 0.00 99 1007.1
20260505052907 14 0.0 0.0 0.00 0.00 0.00 99 1007.2
20260504223513 15 0.0 0.0 0.00 0.00 0.00 99 1009.5
20260504220412 16 0.0 0.0 0.00 0.00 0.00 99 1009.8
20260504214332 16 0.0 0.0 0.00 0.00 0.00 99 1009.7
20260504213312 16 0.0 0.0 0.00 0.00 0.00 99 1010.1
20260504212251 15 0.0 0.0 0.00 0.00 0.00 99 1010.4
20260504211231 16 0.0 0.0 0.00 0.00 0.00 99 1010.1
20260504210211 16 0.0 0.0 0.00 0.00 0.00 99 1010.5
20260504205151 17 0.0 0.0 0.00 0.00 0.00 99 1010.2
20260504204131 17 0.0 0.0 0.00 0.00 0.00 99 1010.2
20260504203111 17 0.0 0.0 0.00 0.00 0.00 99 1010.0
20260504202050 17 0.0 0.0 0.00 0.00 0.00 99 1010.4
20260504201030 17 0.0 0.0 0.00 0.00 0.00 99 1010.0
20260504200010 17 0.0 0.0 0.00 0.00 0.00 99 1010.3
20260504194950 17 0.0 0.0 0.00 0.00 0.00 99 1010.0
20260504192910 18 0.0 0.0 0.00 0.00 0.00 99 1010.3
20260504191849 18 0.0 0.0 0.00 0.00 0.00 99 1009.9
20260504185809 18 0.0 0.0 0.00 0.00 0.00 99 1009.4
20260504183729 18 0.0 0.0 0.00 0.00 0.00 99 1009.7
20260504182710 19 0.0 0.0 0.00 0.00 0.00 99 1009.5
20260504181648 19 0.0 0.0 0.00 0.00 0.00 99 1009.1
20260504180739 19 0.0 0.0 0.00 0.00 0.00 99 1009.0
20260504180628 19 0.0 0.0 0.00 0.00 0.00 99 1009.0
20260504175608 20 0.0 0.0 0.00 0.00 0.00 99 1008.4
20260504174548 20 0.0 0.0 0.00 0.00 0.00 99 1008.5
20260504173528 20 0.0 0.0 0.00 0.00 0.00 99 1008.9
20260504172508 20 0.0 0.0 0.00 0.00 0.00 99 1009.1
20260504171447 21 0.0 0.0 0.00 0.00 0.00 99 1008.9
20260504170427 21 0.0 0.0 0.00 0.00 0.00 99 1008.8
20260504151046 23 0.0 0.0 0.00 0.00 0.00 86 1008.4
20260504140845 23 0.0 0.0 0.00 0.00 0.00 81 1008.0
20260504130643 24 0.0 0.0 0.00 0.00 0.00 83 1009.3
20260504110242 26 0.0 0.0 0.00 0.00 0.00 83 1010.3
20260504081719 33 0.0 0.0 0.00 0.00 0.00 67 1003.4